When you browse on this site, cookies collect data to enhance your experience and personalize the content and advertising you see.
Visit our Privacy Policy to learn more. By continuing to use the site, you agree to this use of cookies and data.
  • In Sweden
  • List of Countries
  • For 7 days
  • Water Temperature
  • Weather Map
  • Weather Widgets
  • user-avatar
    Login

    Hourly Weather Fresnillo

    Today, 23 February, Sunday

    Time Temperature Precipitation Wind Pressure Humidity
    00:00 +14°C° 0 mm 4 mps 587 mmHg 60%
    01:00 +14°C° 0 mm 3 mps 587 mmHg 62%
    02:00 +13°C° 0 mm 3 mps 587 mmHg 63%
    03:00 +14°C° 0 mm 2 mps 586 mmHg 66%
    04:00 +13°C° 0 mm 2 mps 586 mmHg 68%
    05:00 +12°C° 0 mm 1 mps 585 mmHg 72%
    06:00 +13°C° 0 mm 1 mps 586 mmHg 66%
    07:00 +15°C° 0 mm 2 mps 587 mmHg 59%
    08:00 +16°C° 0 mm 2 mps 589 mmHg 53%
    09:00 +18°C° 0 mm 4 mps 589 mmHg 44%
    10:00 +20°C° 0 mm 6 mps 590 mmHg 36%
    11:00 +22°C° 0 mm 7 mps 590 mmHg 27%
    12:00 +23°C° 0 mm 8 mps 589 mmHg 26%
    13:00 +23°C° 0 mm 8 mps 589 mmHg 25%
    14:00 +24°C° 0 mm 9 mps 588 mmHg 24%
    15:00 +23°C° 0 mm 9 mps 588 mmHg 25%
    16:00 +22°C° 0 mm 9 mps 587 mmHg 27%
    17:00 +21°C° 0 mm 9 mps 587 mmHg 28%
    18:00 +20°C° 0 mm 8 mps 587 mmHg 33%
    19:00 +17°C° 0 mm 7 mps 587 mmHg 37%
    20:00 +15°C° 0 mm 6 mps 587 mmHg 41%
    21:00 +14°C° 0 mm 5 mps 586 mmHg 43%
    22:00 +14°C° 0 mm 4 mps 586 mmHg 46%
    23:00 +13°C° 0 mm 4 mps 586 mmHg 49%

    Tomorrow, 24 February, Monday

    Time Temperature Precipitation Wind Pressure Humidity
    00:00 +12°C° 0 mm 4 mps 585 mmHg 50%
    01:00 +12°C° 0 mm 4 mps 584 mmHg 52%
    02:00 +11°C° 0 mm 4 mps 584 mmHg 53%
    03:00 +11°C° 0 mm 4 mps 584 mmHg 52%
    04:00 +10°C° 0 mm 4 mps 583 mmHg 51%
    05:00 +10°C° 0 mm 4 mps 583 mmHg 51%
    06:00 +11°C° 0 mm 4 mps 584 mmHg 46%
    07:00 +13°C° 0 mm 4 mps 585 mmHg 42%
    08:00 +14°C° 0 mm 5 mps 586 mmHg 38%
    09:00 +16°C° 0 mm 5 mps 586 mmHg 33%
    10:00 +20°C° 0 mm 6 mps 587 mmHg 28%
    11:00 +22°C° 0 mm 6 mps 587 mmHg 23%
    12:00 +23°C° 0 mm 6 mps 587 mmHg 22%
    13:00 +24°C° 0 mm 7 mps 587 mmHg 20%
    14:00 +24°C° 0 mm 7 mps 586 mmHg 19%
    15:00 +24°C° 0 mm 7 mps 585 mmHg 20%
    16:00 +23°C° 0 mm 7 mps 585 mmHg 22%
    17:00 +22°C° 0 mm 7 mps 584 mmHg 24%
    18:00 +20°C° 0 mm 6 mps 584 mmHg 28%
    19:00 +19°C° 0 mm 6 mps 584 mmHg 33%
    20:00 +16°C° 0 mm 5 mps 584 mmHg 38%
    21:00 +15°C° 0 mm 4 mps 584 mmHg 40%
    22:00 +14°C° 0 mm 3 mps 584 mmHg 42%
    23:00 +14°C° 0 mm 2 mps 583 mmHg 44%

    Day after tomorrow, 25 February, Tuesday

    Time Temperature Precipitation Wind Pressure Humidity
    00:00 +13°C° 0 mm 2 mps 583 mmHg 45%
    01:00 +13°C° 0 mm 1 mps 582 mmHg 47%
    02:00 +12°C° 0 mm 1 mps 582 mmHg 49%
    03:00 +12°C° 0 mm 1 mps 582 mmHg 50%
    04:00 +10°C° 0 mm 0 mps 581 mmHg 51%
    05:00 +10°C° 0 mm 0 mps 581 mmHg 51%
    06:00 +12°C° 0 mm 1 mps 582 mmHg 47%
    07:00 +13°C° 0 mm 2 mps 583 mmHg 43%
    08:00 +13°C° 0 mm 3 mps 584 mmHg 39%
    09:00 +14°C° 0 mm 4 mps 584 mmHg 38%
    10:00 +15°C° 0 mm 6 mps 584 mmHg 36%
    11:00 +16°C° 0 mm 7 mps 585 mmHg 35%
    12:00 +16°C° 0 mm 7 mps 584 mmHg 34%
    13:00 +17°C° 0 mm 8 mps 584 mmHg 32%
    14:00 +18°C° 0 mm 8 mps 584 mmHg 31%
    15:00 +18°C° 0 mm 7 mps 584 mmHg 30%
    16:00 +19°C° 0 mm 6 mps 584 mmHg 29%
    17:00 +19°C° 0 mm 5 mps 584 mmHg 28%
    18:00 +17°C° 0 mm 5 mps 584 mmHg 31%
    19:00 +17°C° 0 mm 4 mps 584 mmHg 34%
    20:00 +14°C° 0 mm 3 mps 584 mmHg 37%
    21:00 +13°C° 0 mm 3 mps 584 mmHg 35%
    22:00 +12°C° 0 mm 3 mps 584 mmHg 34%
    23:00 +11°C° 0 mm 3 mps 584 mmHg 32%

    26 February, Wednesday

    Time Temperature Precipitation Wind Pressure Humidity
    00:00 +11°C° 0 mm 3 mps 583 mmHg 30%
    01:00 +10°C° 0 mm 3 mps 583 mmHg 28%
    02:00 +9°C° 0 mm 3 mps 583 mmHg 27%
    03:00 +9°C° 0 mm 3 mps 583 mmHg 28%
    04:00 +8°C° 0 mm 2 mps 583 mmHg 30%
    05:00 +8°C° 0 mm 2 mps 583 mmHg 31%
    06:00 +8°C° 0 mm 3 mps 584 mmHg 40%
    07:00 +9°C° 0 mm 3 mps 585 mmHg 49%
    08:00 +10°C° 0 mm 4 mps 586 mmHg 58%
    09:00 +12°C° 0 mm 4 mps 586 mmHg 53%
    10:00 +14°C° 0 mm 5 mps 587 mmHg 49%
    11:00 +16°C° 0 mm 5 mps 588 mmHg 44%
    12:00 +18°C° 0 mm 4 mps 587 mmHg 43%
    13:00 +18°C° 0 mm 4 mps 587 mmHg 42%
    14:00 +18°C° 0 mm 3 mps 586 mmHg 41%
    15:00 +17°C° 0.3 mm 4 mps 585 mmHg 50%
    16:00 +14°C° 0.3 mm 5 mps 585 mmHg 59%
    17:00 +11°C° 0.3 mm 6 mps 584 mmHg 68%
    18:00 +12°C° 0.1 mm 5 mps 584 mmHg 69%
    19:00 +10°C° 0.1 mm 5 mps 585 mmHg 71%
    20:00 +10°C° 0.1 mm 4 mps 585 mmHg 72%
    21:00 +8°C° 0 mm 4 mps 585 mmHg 73%
    22:00 +8°C° 0 mm 3 mps 585 mmHg 75%
    23:00 +8°C° 0 mm 3 mps 585 mmHg 77%

    27 February, Thursday

    Time Temperature Precipitation Wind Pressure Humidity
    00:00 +7°C° 0 mm 3 mps 584 mmHg 78%
    01:00 +6°C° 0 mm 2 mps 584 mmHg 80%
    02:00 +5°C° 0 mm 2 mps 583 mmHg 82%
    03:00 +5°C° 0 mm 2 mps 583 mmHg 83%
    04:00 +6°C° 0 mm 1 mps 583 mmHg 84%
    05:00 +6°C° 0 mm 1 mps 583 mmHg 85%
    06:00 +7°C° 0 mm 1 mps 584 mmHg 80%
    07:00 +8°C° 0 mm 1 mps 585 mmHg 76%
    08:00 +9°C° 0 mm 1 mps 585 mmHg 71%
    09:00 +12°C° 0 mm 1 mps 586 mmHg 63%
    10:00 +14°C° 0 mm 1 mps 587 mmHg 55%
    11:00 +18°C° 0 mm 1 mps 588 mmHg 47%
    12:00 +19°C° 0 mm 1 mps 588 mmHg 43%
    13:00 +20°C° 0 mm 1 mps 587 mmHg 39%
    14:00 +20°C° 0 mm 2 mps 587 mmHg 35%
    15:00 +21°C° 0 mm 1 mps 587 mmHg 36%
    16:00 +20°C° 0 mm 1 mps 587 mmHg 37%
    17:00 +18°C° 0 mm 0 mps 587 mmHg 38%
    18:00 +19°C° 0 mm 1 mps 587 mmHg 41%
    19:00 +19°C° 0 mm 1 mps 587 mmHg 44%
    20:00 +17°C° 0 mm 2 mps 587 mmHg 46%
    21:00 +16°C° 0 mm 2 mps 587 mmHg 48%
    22:00 +16°C° 0 mm 2 mps 588 mmHg 50%
    23:00 +15°C° 0 mm 2 mps 588 mmHg 52%

    28 February, Friday

    Time Temperature Precipitation Wind Pressure Humidity
    00:00 +14°C° 0 mm 2 mps 587 mmHg 55%
    01:00 +13°C° 0 mm 2 mps 587 mmHg 57%
    02:00 +12°C° 0 mm 2 mps 586 mmHg 60%
    03:00 +12°C° 0 mm 2 mps 586 mmHg 62%
    04:00 +10°C° 0 mm 2 mps 586 mmHg 63%
    05:00 +10°C° 0 mm 2 mps 586 mmHg 65%
    06:00 +10°C° 0 mm 2 mps 587 mmHg 62%
    07:00 +12°C° 0 mm 2 mps 587 mmHg 59%
    08:00 +13°C° 0 mm 2 mps 588 mmHg 56%
    09:00 +15°C° 0 mm 2 mps 589 mmHg 50%
    10:00 +17°C° 0 mm 2 mps 590 mmHg 45%
    11:00 +19°C° 0 mm 2 mps 590 mmHg 40%
    12:00 +20°C° 0 mm 2 mps 590 mmHg 36%
    13:00 +21°C° 0 mm 2 mps 589 mmHg 32%
    14:00 +24°C° 0 mm 2 mps 589 mmHg 28%
    15:00 +24°C° 0 mm 3 mps 589 mmHg 28%
    16:00 +24°C° 0 mm 3 mps 589 mmHg 28%
    17:00 +24°C° 0 mm 3 mps 588 mmHg 27%
    18:00 +21°C° 0 mm 3 mps 588 mmHg 32%
    19:00 +19°C° 0 mm 4 mps 588 mmHg 37%
    20:00 +17°C° 0 mm 4 mps 588 mmHg 41%
    21:00 +15°C° 0 mm 4 mps 588 mmHg 46%
    22:00 +14°C° 0 mm 3 mps 588 mmHg 50%
    23:00 +14°C° 0 mm 2 mps 588 mmHg 54%
    Show more